Regional Weather Roundup
Issued by NWS

Home | Current Version | Previous Version | Text Only | Print | Product List | Glossary Off
Versions: 1 2 3 4 5 6 7 8 9 10 11 12 13 14 15 16 17 18 19 20 21 22 23 24 25 26 27 28 29 30 31 32 33 34 35 36 37 38 39 40 41 42 43 44 45 46 47 48 49 50

000
ASUS44 KMEG 061800
RWRTN
TENNESSEE HOURLY STATE WEATHER ROUNDUP
NATIONAL WEATHER SERVICE MEMPHIS TN
1200 PM CST FRI MAR 06 2015

TNZ002-004-019-021-049-052-054-088>092-061900-
WEST TENNESSEE

CITY           SKY/WX    TMP DP  RH WIND       PRES   REMARKS
MEMPHIS INTL   FAIR      32  11  41 CALM      30.59F
NWS MEMPHIS      N/A     33 N/A N/A MISG        N/A
JACKSON        FAIR      28  11  48 NW3       30.58F
DYERSBURG      FAIR      25   0  33 SE5       30.62F WCI  19
UNION CITY     SUNNY     25  10  54 CALM      30.58F
PARIS          SUNNY     27   5  39 CALM      30.57F
LEXINGTON      SUNNY     28   9  43 CALM      30.55F
SAVANNAH       SUNNY     30  12  47 VRB5      30.57F WCI  25
$$

TNZ008-025-027-028-033-062-065-066-061900-
NORTH MIDDLE TENNESSEE

CITY           SKY/WX    TMP DP  RH WIND       PRES   REMARKS
NASHVILLE      FAIR      30  16  56 CALM      30.58F
CLARKSVILLE    FAIR      28  13  53 CALM      30.57F
COOKEVILLE     SUNNY     30  19  64 NW5       30.50F WCI  25
CROSSVILLE     FAIR      28  17  63 W5        30.44F WCI  23
$$

TNZ061-075-076-078-094-096-097-061900-
SOUTH MIDDLE TENNESSEE

CITY           SKY/WX    TMP DP  RH WIND       PRES   REMARKS
FAYETTEVILLE   SUNNY     27  18  69 N5          N/A  WCI  21
TULLAHOMA      SUNNY     28  14  54 N5          N/A  WCI  23
WINCHESTER     SUNNY     28  19  69 CALM      30.52S
COLUMBIA         N/A     28  18  64 NW3       30.54F
SHELBYVILLE    SUNNY     28  21  74 N6        30.55F WCI  22
$$

TNZ017-018-042-046-047-061900-
NORTHEAST TENNESSEE

CITY           SKY/WX    TMP DP  RH WIND       PRES   REMARKS
TRI CITIES     FAIR      31  19  61 NW6       30.43F WCI  25
ELIZABETHTON   CLEAR     30  21  69 W7        30.40F WCI  23
$$

TNZ012-013-036-069-073-074-061900-
CENTRAL EAST TENNESSEE

CITY           SKY/WX    TMP DP  RH WIND       PRES   REMARKS
KNOXVILLE      FAIR      33  21  61 CALM      30.48F
OAK RIDGE      FAIR      32  18  56 E5        30.50F WCI  27
GATLINBURG     PTCLDY    28  19  69 CALM      30.47F
$$

TNZ083-085-099-061900-
SOUTHEAST TENNESSEE

CITY           SKY/WX    TMP DP  RH WIND       PRES   REMARKS
CHATTANOOGA    FAIR      36  18  48 VRB5      30.50F WCI  32
$$

SKY/WX REPORTED AS FAIR MEANS FEW OR NO CLOUDS BELOW
12 THOUSAND FEET.



USA.gov is the U.S. government's official web portal to all federal, state and local government web resources and services.